TEVEL2-2

Last updated on Wed Sep 09 2026 00:03:15 GMT+0000 (Coordinated Universal Time)

1 63219U 25052K 26251.15436597 .00019608 00000+0 55296-3 0 9994 2 63219 97.3753 147.2228 0003148 145.3762 214.7688 15.36444019 82820
UTC large
Height (km)
Speed (km/s)
/
Latitude / Longitude
Inclination (degrees)
Orbital Period (minutes)
Azimuth
Elevation
Range (km)
Doppler Factor

Next 0 passes for location: London (51.5072 / 0.1276)

No passes found over London.
TEVEL2-2